This is the latest recevied weather packets stored in our database for station/object OK1VCF-8. If no packets are shown the sender has not sent any weather packets the latest 10 day(s).
| Time | Temp. | Humidity | Pressure | Rain* | Wind** | Luminosity | Snow |
|---|---|---|---|---|---|---|---|
| 1777371920 | 16.11° C | 32% | 1022.8 hPa | - | - | - | - |
| 1777371479 | 16.11° C | 32% | 1022.6 hPa | - | - | - | - |
| 1777371039 | 16.11° C | 32% | 1022.8 hPa | - | - | - | - |
| 1777370598 | 16.67° C | 32% | 1022.7 hPa | - | - | - | - |
| 1777370156 | 15.56° C | 34% | 1022.8 hPa | - | - | - | - |
| 1777369715 | 16.11° C | 33% | 1022.7 hPa | - | - | - | - |
| 1777369275 | 15.56° C | 35% | 1022.8 hPa | - | - | - | - |
| 1777368835 | 15.56° C | 34% | 1023.1 hPa | - | - | - | - |
| 1777368394 | 15° C | 36% | 1023 hPa | - | - | - | - |
| 1777367954 | 15° C | 36% | 1023 hPa | - | - | - | - |
| 1777367514 | 14.44° C | 36% | 1023 hPa | - | - | - | - |
| 1777367074 | 14.44° C | 35% | 1023 hPa | - | - | - | - |
| 1777366633 | 14.44° C | 36% | 1023.1 hPa | - | - | - | - |
| 1777366191 | 14.44° C | 38% | 1023 hPa | - | - | - | - |
| 1777365584 | 14.44° C | 40% | 1023 hPa | - | - | - | - |
| 1777365144 | 14.44° C | 42% | 1023 hPa | - | - | - | - |
| 1777364703 | 13.33° C | 44% | 1023 hPa | - | - | - | - |
| 1777364263 | 13.33° C | 44% | 1023.1 hPa | - | - | - | - |
| 1777363823 | 12.78° C | 46% | 1023 hPa | - | - | - | - |
| 1777363382 | 12.22° C | 47% | 1023 hPa | - | - | - | - |
| 1777362939 | 12.22° C | 48% | 1023.1 hPa | - | - | - | - |
| 1777362498 | 12.22° C | 49% | 1023 hPa | - | - | - | - |
| 1777362060 | 11.67° C | 50% | 1023 hPa | - | - | - | - |
| 1777361622 | 11.11° C | 50% | 1023 hPa | - | - | - | - |
| 1777361180 | 11.11° C | 52% | 1022.8 hPa | - | - | - | - |
* Rain since midnight (hover to see other rain measurements)
** Current wind speed in m/s (hover to see current wind gust speed)